Yuma MCAS, AZ

1:24 PM MST on May 24, 2017 (GMT -0700)
Yuma Marine Corps Air Station

Weather History for KNYL - November, 2011

Change the Weather History Date:

Thursday, November 24, 2011

  Actual Average Record
Temperature  
Mean Temperature 62 °F 62 °F  
Max Temperature 72 °F 74 °F 89 °F (1950)
Min Temperature 52 °F 51 °F 34 °F (1902)
Degree Days  
Heating Degree Days 3 4  
Month to date heating degree days 48 38  
Since 1 July heating degree days 48 40  
Cooling Degree Days 0 1  
Month to date cooling degree days 19 83  
Year to date cooling degree days 4683 4645  
Growing Degree Days 12 (Base 50)    
Moisture  
Dew Point 45 °F    
Average Humidity 56    
Maximum Humidity 80    
Minimum Humidity 32    
Precipitation  
Precipitation 0.00 in 0.01 in 0.34 in (1978)
Month to date precipitation 0.42 0.15  
Year to date precipitation 1.84 2.98  
Sea Level Pressure  
Sea Level Pressure 29.93 in    
Wind  
Wind Speed 8 mph (NW)    
Max Wind Speed 18 mph    
Max Gust Speed 22 mph    
Visibility 10 miles    
Events      
T = Trace of Precipitation, MM = Missing Value Source: NWS Daily Summary

Daily Weather History Graph

Daily Weather History Graph

Search for Another Location

Airport or City:

Trip Planner

Search our weather history database for the weather conditions in past years. The results will help you decide how hot, cold, wet, or windy it might be!

Date:

Astronomy

Nov. 24, 2011 Rise Set
Actual Time 7:16 AM MST 5:33 PM MST
Civil Twilight 6:49 AM MST 6:00 PM MST
Nautical Twilight 6:19 AM MST 6:30 PM MST
Astronomical Twilight 5:50 AM MST 6:59 PM MST
Moon 6:38 AM MST 5:10 PM MST
Length of Visible Light 11h 10m
Length of Day
10h 17m
Waning Crescent, 0% of the Moon is Illuminated
Nov 24
Waning Crescent
Nov 24
New
Dec 2
First Quarter
Dec 10
Full
Dec 17
Last Quarter

Hourly Weather History & Observations

Time (MST) Temp. Dew Point Humidity Pressure Visibility Wind Dir Wind Speed Gust Speed Precip Events Conditions
12:55 AM 59.0 °F 48.9 °F 69% 29.92 in 10.0 mi SSE 9.2 mph - N/A   Clear
1:55 AM 59.0 °F 50.0 °F 72% 29.90 in 10.0 mi SE 4.6 mph - N/A   Clear
2:55 AM 59.0 °F 52.0 °F 78% 29.90 in 10.0 mi SE 9.2 mph - N/A   Clear
3:55 AM 59.0 °F 53.1 °F 81% 29.89 in 10.0 mi ESE 9.2 mph - N/A   Clear
4:55 AM 54.0 °F 45.0 °F 72% 29.92 in 10.0 mi NNE 5.8 mph - N/A   Clear
5:55 AM 53.1 °F 43.0 °F 69% 29.92 in 10.0 mi NNE 5.8 mph - N/A   Clear
6:55 AM 53.1 °F 45.0 °F 74% 29.92 in 10.0 mi NNE 3.5 mph - N/A   Clear
7:55 AM 52.0 °F 45.0 °F 77% 29.93 in 10.0 mi NNE 6.9 mph - N/A   Clear
8:55 AM 57.0 °F 46.9 °F 69% 29.93 in 10.0 mi NE 6.9 mph - N/A   Clear
9:55 AM 63.0 °F 48.0 °F 58% 29.95 in 10.0 mi NE 8.1 mph - N/A   Partly Cloudy
10:55 AM 69.1 °F 50.0 °F 51% 29.94 in 10.0 mi Variable 3.5 mph - N/A   Partly Cloudy
11:55 AM 70.0 °F 51.1 °F 51% 29.94 in 10.0 mi WSW 9.2 mph - N/A   Clear
12:55 PM 69.1 °F 51.1 °F 53% 29.92 in 10.0 mi Variable 5.8 mph - N/A   Scattered Clouds
1:55 PM 70.0 °F 48.0 °F 46% 29.90 in 10.0 mi WSW 9.2 mph - N/A   Mostly Cloudy
2:55 PM 71.1 °F 43.0 °F 36% 29.88 in 10.0 mi WNW 12.7 mph - N/A   Mostly Cloudy
3:55 PM 70.0 °F 41.0 °F 35% 29.88 in 10.0 mi WNW 16.1 mph - N/A   Clear
4:55 PM 68.0 °F 37.9 °F 33% 29.90 in 10.0 mi WNW 13.8 mph 21.9 mph N/A   Overcast
5:55 PM 66.0 °F 37.0 °F 34% 29.91 in 10.0 mi WNW 10.4 mph - N/A   Overcast
6:55 PM 63.0 °F 37.9 °F 40% 29.95 in 10.0 mi West 9.2 mph - N/A   Mostly Cloudy
7:55 PM 62.1 °F 37.9 °F 41% 29.96 in 10.0 mi WNW 8.1 mph - N/A   Partly Cloudy
8:55 PM 61.0 °F 37.9 °F 42% 29.98 in 10.0 mi WNW 9.2 mph - N/A   Overcast
9:55 PM 57.9 °F 39.0 °F 49% 29.99 in 10.0 mi WNW 8.1 mph - N/A   Partly Cloudy
10:55 PM 55.9 °F 39.9 °F 55% 29.99 in 10.0 mi West 9.2 mph - N/A   Clear
11:55 PM 55.9 °F 39.9 °F 55% 30.00 in 10.0 mi WNW 5.8 mph - N/A   Clear